This demonstration page uses our WeatherBlox Daily Observations layout. Learn more.

Left ArrowRight Arrow

Hourly Observations for August 5, 2015

Temp ( °F °C ) Dew Point ( °F °C ) Humidity (%) Winds ( mph kmh ) Pressure ( in mb ) Visibility ( mi km ) Precip ( " mm )
12:15 am 00:15 Clear 63 17 62 16.4 96 96 Calm 29.94 1014 7 11 N/A
12:35 am 00:35 Partly Cloudy 63 17.2 62 16.6 96 96 Calm 29.94 1014 7 11 N/A
12:55 am 00:55 Clear 64 17.5 63 17 97 97 SE 5 7 29.94 1014 7 11 N/A
1:15 am 01:15 Mostly Cloudy 64 18 63 17.3 96 96 ESE 3 6 29.97 1015 7 11 N/A
1:35 am 01:35 Cloudy with Mist and Fog 64 18 63 17.4 96 96 SSE 6 9 29.94 1014 5 8 N/A
1:55 am 01:55 Mostly Cloudy with Mist and Fog 64 18 63 17.3 96 96 E 7 11 29.94 1014 5 8 N/A
2:15 am 02:15 Mostly Cloudy with Mist and Fog 65 18.1 64 17.5 96 96 Calm 29.94 1014 5 8 N/A
2:35 am 02:35 Cloudy with Mist and Fog 65 18.2 64 17.5 96 96 Calm 29.97 1015 5 8 N/A
2:55 am 02:55 Cloudy with Mist and Fog 65 18.4 64 17.7 96 96 Calm 29.94 1014 5 8 N/A
3:15 am 03:15 Cloudy 65 18.5 64 17.6 95 95 Calm 29.94 1014 7 11 N/A
3:35 am 03:35 Cloudy with Mist and Fog 65 18.5 64 17.6 95 95 Calm 29.94 1014 5 8 N/A
3:55 am 03:55 Cloudy with Mist and Fog 65 18.5 64 17.7 95 95 Calm 29.94 1014 4 6 N/A
4:15 am 04:15 Cloudy with Mist and Fog 65 18.5 64 17.8 96 96 Calm 29.97 1015 3 5 N/A
4:35 am 04:35 Cloudy with Mist and Fog 65 18.5 64 17.8 96 96 Calm 29.97 1015 1 1 N/A
4:55 am 04:55 Cloudy with Mist and Fog 65 18.5 64 18 97 97 Calm 29.94 1014 1 1 N/A
5:15 am 05:15 Cloudy with Fog 65 18.5 64 18 97 97 NW 3 6 29.94 1014 1 1 N/A
5:35 am 05:35 Cloudy with Fog 65 18.6 64 18 96 96 NW 5 7 29.94 1014 1 1 N/A
5:55 am 05:55 Cloudy with Fog 65 18.5 64 18 97 97 WNW 3 6 29.94 1014 0 0 N/A
6:15 am 06:15 Cloudy with Fog 65 18.3 64 17.8 97 97 Calm 29.94 1014 0 0 N/A
6:35 am 06:35 Cloudy with Fog 65 18.3 64 17.8 97 97 Calm 29.94 1014 0 0 N/A
6:55 am 06:55 Cloudy with Fog 65 18.2 64 17.7 97 97 Calm 29.97 1015 5 8 0.00 0.00
7:15 am 07:15 Cloudy with Fog 65 18.1 64 17.6 97 97 Calm 29.97 1015 5 8 N/A
7:35 am 07:35 Cloudy with Fog 65 18.3 64 18 98 98 E 6 9 29.97 1015 5 8 N/A
7:55 am 07:55 Cloudy with Fog 64 18 64 17.6 98 98 Calm 29.97 1015 5 8 N/A
8:15 am 08:15 Cloudy with Fog 65 18.1 64 17.7 98 98 Calm 29.97 1015 0 0 N/A
8:35 am 08:35 Cloudy with Fog 65 18.3 64 17.9 98 98 Calm 29.97 1015 0 0 N/A
8:55 am 08:55 Cloudy with Fog 65 18.6 65 18.2 98 98 Calm 29.97 1015 0 0 N/A
9:15 am 09:15 Cloudy with Mist and Fog 66 18.7 65 18.3 98 98 Calm 29.97 1015 2 3 N/A
9:35 am 09:35 Cloudy with Mist and Fog 66 19.1 65 18.6 97 97 Calm 29.97 1015 5 8 N/A
9:55 am 09:55 Cloudy 67 19.4 66 18.9 97 97 Calm 29.97 1015 7 11 N/A
10:15 am 10:15 Cloudy 67 19.6 66 19.1 97 97 Calm 29.97 1015 10 16 N/A
10:35 am 10:35 Partly Cloudy 68 20.1 67 19.5 96 96 Calm 29.97 1015 10 16 N/A
10:55 am 10:55 Sunny 69 20.7 68 20 96 96 Calm 29.94 1014 10 16 N/A
11:15 am 11:15 Partly Cloudy 70 20.9 68 20 95 95 Calm 29.94 1014 10 16 N/A
11:35 am 11:35 Sunny 71 21.8 69 20.7 94 94 Calm 29.94 1014 10 16 N/A
11:55 am 11:55 Sunny 73 22.6 69 20.6 89 89 Calm 29.94 1014 10 16 N/A
12:15 pm 12:15 Sunny 76 24.4 68 20.2 78 78 S 3 6 29.91 1013 10 16 N/A
12:35 pm 12:35 Sunny 77 24.9 68 19.8 73 73 Calm 29.91 1013 10 16 N/A
12:55 pm 12:55 Sunny 78 25.4 67 19.4 69 69 E 3 6 29.91 1013 10 16 N/A
1:15 pm 13:15 Sunny 78 25.7 67 19.3 68 68 WSW 3 6 29.91 1013 10 16 N/A
1:35 pm 13:35 Sunny 79 26.2 66 18.9 64 64 W 3 6 29.91 1013 10 16 N/A
1:55 pm 13:55 Sunny 79 26.3 66 18.7 63 63 SE 5 7 29.88 1012 10 16 N/A
2:15 pm 14:15 Sunny 80 26.5 65 18.5 62 62 E 5 7 29.85 1011 10 16 N/A
2:35 pm 14:35 Sunny 81 27.3 66 18.7 59 59 SE 7 11 29.85 1011 10 16 N/A
2:55 pm 14:55 Sunny 81 27 65 18.3 59 59 SE 12 19 29.85 1011 10 16 N/A
3:15 pm 15:15 Sunny 81 27 65 18.6 60 60 ESE 12 19 29.85 1011 10 16 N/A
3:35 pm 15:35 Sunny 81 27 67 19.2 62 62 SE 7 11 29.85 1011 10 16 N/A
3:55 pm 15:55 Sunny 81 27.3 67 19.7 63 63 SSE 9 15 29.85 1011 10 16 N/A
4:15 pm 16:15 Sunny 82 27.5 67 19.5 62 62 S 6 9 29.85 1011 10 16 N/A
4:35 pm 16:35 Sunny 81 27.4 67 19.6 62 62 S 8 13 29.85 1011 10 16 N/A
4:55 pm 16:55 Sunny 82 27.5 68 19.8 63 63 S 9 15 29.85 1011 10 16 N/A
5:15 pm 17:15 Sunny 82 27.5 67 19.7 63 63 SSE 9 15 29.85 1011 10 16 N/A
5:35 pm 17:35 Sunny 82 27.5 67 19.4 61 61 SSE 8 13 29.85 1011 10 16 N/A
5:55 pm 17:55 Sunny 82 27.5 66 19 60 60 S 8 13 29.83 1010 10 16 N/A
6:15 pm 18:15 Sunny 82 27.5 67 19.5 62 62 SE 10 17 29.83 1010 10 16 N/A
6:35 pm 18:35 Sunny 81 27.1 67 19.4 63 63 SE 9 15 29.83 1010 10 16 N/A
6:55 pm 18:55 Sunny 81 27 66 19.1 62 62 SE 9 15 29.83 1010 10 16 N/A
7:15 pm 19:15 Sunny 79 26.1 66 19 65 65 SE 7 11 29.85 1011 10 16 N/A
7:35 pm 19:35 Sunny 79 25.9 66 19.1 66 66 SE 9 15 29.85 1011 10 16 N/A
7:55 pm 19:55 Sunny 77 25 67 19.5 72 72 SE 7 11 29.85 1011 10 16 N/A
8:15 pm 20:15 Sunny 77 24.8 67 19.5 72 72 SE 8 13 29.85 1011 10 16 N/A
8:35 pm 20:35 Sunny 76 24.2 67 19.6 76 76 SE 7 11 29.85 1011 10 16 N/A
8:55 pm 20:55 Clear 75 24 67 19.7 77 77 SE 8 13 29.85 1011 10 16 N/A
9:15 pm 21:15 Clear 75 23.8 68 19.8 78 78 SE 8 13 29.85 1011 10 16 N/A
9:35 pm 21:35 Clear 74 23.3 67 19.7 80 80 SSE 6 9 29.88 1012 10 16 N/A
9:55 pm 21:55 Clear 72 22.1 67 19.7 86 86 SSE 6 9 29.88 1012 10 16 N/A
10:15 pm 22:15 Clear 72 22.2 67 19.6 85 85 SE 9 15 29.88 1012 10 16 N/A
10:35 pm 22:35 Clear 72 22 67 19.5 86 86 SE 7 11 29.88 1012 10 16 N/A
10:55 pm 22:55 Clear 72 22.3 67 19.5 84 84 SE 10 17 29.88 1012 10 16 N/A
11:15 pm 23:15 Clear 71 21.7 67 19.2 86 86 SSE 10 17 29.88 1012 10 16 N/A
11:35 pm 23:35 Clear 70 21.3 67 19.2 88 88 SE 10 17 29.85 1011 10 16 N/A
11:55 pm 23:55 Clear 70 21.1 67 19.2 89 89 SSE 9 15 29.88 1012 10 16 N/A

Powered by AerisWeather